CZ-6A DEB, 55231

Orbit data source: Space-Track

CZ-6A DEB, 55231 is space debris in SSO originally from a launch on Fri, 11 Nov 2022 UTC launched from the Taiyaun Space Center, China (TSC). Debris objects in space refer to the collection of defunct objects orbiting the Earth. Examples of debris include non-operational satellites, rocket bodies, and fragments generated from explosions, collisions, or faulty payload assembly.

Loading next visibility...
Identifier
55231, 2022-151WY
Orbit
SSO
Country
Flag of CNCN / PRC
Related business
Manufacturer
SAST
Mission
Spacecraft
Bus & Motor
Unknown
Mass
Unknown
Launch date (UTC)
2022-11-11 (4 years ago)
Launch vehicle
Unknown
Launch site
Taiyaun Space Center, China (TSC)
Object type
Payload
Rocket body
Debris
Shape & HBR
Unknown shape, 0.1 m
Radar Cross Section
Small (<0.1 m²)

Expand to show TLE details & history
Last TLE update: 2 days ago

TLE from 2 days ago
0 CZ-6A DEB
1 55231U 22151WY  26234.70077945  .00009918  00000-0  12517-2 0  9998
2 55231  98.6201 319.7316 0069868  17.5289 342.8309 14.80416702195538
Epoch: 2026-08-22T16:49Z
TLE epoch observation values (Epoch: 2026-08-22T16:49:07.344Z)
Latitude
-0.00003°
Longitude
96.44359°
Altitude
584.26 km
Speed
7.593 km/s
True Right ascension
21h 18m 55s
True Declination
0° 00' 00"
Sunlit
Object was in full shadow at epoch
Visualization orbit readout
Latitude
Unknown
Longitude
Unknown
Altitude
Unknown
Speed
Unknown
Apparent Right ascension
Unknown
Apparent Declination
Unknown
Sunlit
N/A
Visualization observer readout
Local Sidereal Time
22:16:42
Azimuth
Unknown
Elevation
Unknown
Doppler factor
Unknown
Orbital elements
Apogee altitude
674.013 km
Perigee altitude
576.153 km
Semi-major axis
7,003.22 km
Eccentricity
0.00699
Inclination
98.6201°
RAAN
319.7316°
Arg. of periapsis
17.5289°
True anomaly
342.59257°
Mean anomaly
342.8309°
Eccentric anomaly
342.71194°
Mean motion
3.70337 °/min
Orbital period
97.21 mins
BSTAR
0.0012517
Loading maneuver chart data...
Computing Atmospheric mass density...
Loading historical data...
Loading historical data...
Loading historical data...
Loading historical data...
Loading historical data...
Loading historical data...
Loading historical data...

Documentation

Showing up to 5 results
|